[[{"header":{"parameterUnit":"m.s-1","parameterCategory":1,"la1":30.2991,"la2":30.254,"lo1":-89.0895,"lo2":-89.0444,"dy":0.0017,"dx":0.0017,"nx":28,"ny":28,"refTime":"2023-11-04T09:00:00:Z","depth":0,"parameterNumber":2,"parameterNumberName":"U-component_of_WINDS"},"data":[0,0,0,0,0,0,0,0,0,0,0,0,0,0,0,0,0,0,0,0,0,0,0,0,0,0,0,0,0,0,0,0,0,0,0,0,0,0,0,0,0,0,0,0,0,0,0,0,0,0,0,0,0,0,0,0,0,0,-1.2519,-1.2519,0,-1.2452,-1.2451,-1.245,-1.2347,-1.2345,-1.2343,-1.2341,-1.2273,-1.2273,-1.2273,0,0,0,0,0,0,0,0,0,0,0,0,0,-1.2561,-1.2561,-1.2519,-1.2519,-1.2518,-1.2452,-1.2451,-1.245,-1.2347,-1.2345,-1.2342,-1.234,-1.2273,-1.2273,-1.2273,0,0,0,0,0,0,0,0,0,0,0,0,0,-1.2523,-1.2561,-1.252,-1.2458,-1.2452,-1.2452,-1.2451,-1.245,-1.2347,-1.2345,-1.2342,-1.2339,-1.2273,-1.2273,-1.2273,-1.2328,0,0,-1.2273,-1.2272,0,0,0,0,0,0,0,0,-1.2526,-1.2522,-1.2468,-1.2463,-1.2456,-1.2405,-1.244,-1.2409,-1.2348,-1.2387,-1.2341,-1.2338,-1.2319,-1.2315,-1.2309,-1.2324,-1.2321,-1.2273,-1.2272,-1.2272,-1.2272,0,0,0,0,0,0,0,-1.2528,-1.2524,-1.2493,-1.2468,-1.246,-1.2435,-1.2426,-1.2434,-1.237,-1.2384,-1.2376,-1.2369,-1.2315,-1.2309,-1.2306,-1.232,-1.2273,-1.2272,-1.2272,-1.2272,-1.238,-1.2382,0,0,0,0,0,0,-1.254,-1.2527,-1.2495,-1.2491,-1.2484,-1.2436,-1.2427,-1.2424,-1.2369,-1.2358,-1.2372,-1.2365,-1.2311,-1.2306,-1.2303,-1.2365,-1.2272,-1.2272,-1.2272,-1.2377,-1.238,-1.2383,0,0,0,0,0,0,-1.2541,-1.2538,-1.2497,-1.2507,-1.25,-1.2439,-1.2436,-1.2424,-1.2417,-1.236,-1.2348,-1.2377,-1.2308,-1.2304,-1.2323,-1.2362,-1.2272,-1.2272,-1.2373,-1.2378,-1.2382,-1.2489,0,0,0,0,0,0,-1.2543,-1.2539,-1.2559,-1.2508,-1.25,-1.2518,-1.2438,-1.2425,-1.2417,-1.2408,-1.2362,-1.2352,-1.2306,-1.2323,-1.2323,-1.236,-1.2272,-1.237,-1.2375,-1.2381,-1.2482,-1.2497,-1.251,0,0,0,0,0,-1.2545,-1.2591,-1.256,-1.2557,-1.2523,-1.252,-1.2515,-1.2461,-1.2421,-1.2441,-1.2404,-1.2353,-1.2357,-1.2326,-1.2324,-1.2362,-1.2367,-1.2374,-1.238,-1.2476,-1.2494,-1.2509,0,0,0,0,0,0,-1.2649,-1.2584,-1.2548,-1.258,-1.2556,-1.2503,-1.2526,-1.2481,-1.2469,-1.246,-1.2393,-1.2384,-1.2412,-1.2388,-1.2355,-1.2413,-1.2354,-1.2361,-1.2428,-1.2445,-1.2458,-1.2464,-1.2272,0,0,0,0,0,-1.2675,-1.2678,-1.2621,-1.2655,-1.2644,-1.2588,-1.2584,-1.2544,-1.2517,-1.2507,-1.2471,-1.2448,-1.2444,-1.2442,-1.2435,-1.2478,-1.2467,-1.2503,-1.2516,-1.2528,-1.2535,-1.2558,-1.2574,-1.2405,-1.2405,-1.2405,0,0,-1.273,-1.2695,-1.2701,-1.2675,-1.2652,-1.2657,-1.258,-1.2588,-1.2592,-1.2508,-1.2525,-1.2498,-1.2467,-1.2499,-1.2511,-1.248,-1.2579,-1.2536,-1.2546,-1.2547,-1.2566,-1.2582,-1.2597,-1.241,-1.2409,-1.2408,0,0,-1.2834,-1.2807,-1.2833,-1.2811,-1.2777,-1.2739,-1.2746,-1.2699,-1.2678,-1.2693,-1.2631,-1.2634,-1.2628,-1.2609,-1.2599,-1.2697,-1.265,-1.2696,-1.2768,-1.2791,-1.2805,-1.2816,-1.2853,-1.2867,-1.2703,-1.2703,-1.2703,0,-1.2907,-1.2912,-1.2852,-1.2864,-1.2856,-1.278,-1.2806,-1.2788,-1.2754,-1.275,-1.2716,-1.2708,-1.2681,-1.2708,-1.2733,-1.2726,-1.2732,-1.2702,-1.2807,-1.2818,-1.2828,-1.2863,-1.2877,-1.2709,-1.2708,-1.2708,-1.2707,0,-1.3004,-1.3009,-1.3034,-1.3003,-1.2996,-1.3016,-1.296,-1.2961,-1.2922,-1.2888,-1.2905,-1.2871,-1.2856,-1.2859,-1.2821,-1.2882,-1.2864,-1.2819,-1.2759,-1.2851,-1.2883,-1.2895,-1.2718,-1.2715,-1.2714,-1.2712,0,0,-1.3172,-1.3108,-1.3119,-1.3105,-1.3062,-1.3065,-1.3081,-1.3067,-1.307,-1.3049,-1.3062,-1.3059,-1.3018,-1.3007,-1.2966,-1.2986,-1.3068,-1.2939,-1.2937,-1.2966,-1.3135,-1.3171,-1.3187,-1.3036,-1.3038,-1.304,-1.3139,0,-1.3269,-1.3293,-1.324,-1.3278,-1.3283,-1.3211,-1.3226,-1.3202,-1.3171,-1.3171,-1.3136,-1.3136,-1.308,-1.3073,-1.309,-1.3055,-1.3101,-1.3046,-1.305,-1.3051,-1.3062,-1.3203,-1.324,-1.3334,-1.315,-1.3152,-1.3154,0,-1.3385,-1.337,-1.3409,-1.3366,-1.3365,-1.338,-1.3363,-1.3363,-1.3335,-1.3311,-1.3299,-1.3251,-1.3265,-1.3206,-1.3226,-1.319,-1.3188,-1.3171,-1.3174,-1.3173,-1.3109,-1.3209,-1.3363,-1.3378,-1.3172,-1.3171,-1.3169,0,-1.3506,-1.3496,-1.3518,-1.3508,-1.3457,-1.347,-1.3449,-1.3418,-1.3413,-1.3399,-1.3396,-1.3383,-1.3377,-1.3369,-1.3319,-1.328,-1.3346,-1.3282,-1.3328,-1.333,-1.3347,-1.3347,-1.3506,-1.3342,-1.3342,-1.3342,-1.3342,0,-1.3621,-1.3648,-1.3573,-1.3587,-1.3615,-1.3554,-1.3584,-1.3557,-1.353,-1.3538,-1.3475,-1.3484,-1.3417,-1.3419,-1.338,-1.3404,-1.3401,-1.3383,-1.3373,-1.339,-1.3393,-1.339,-1.3383,-1.3346,-1.3345,-1.3344,-1.3343,0,-1.3762,-1.3712,-1.3732,-1.3683,-1.3671,-1.3695,-1.3652,-1.3664,-1.3629,-1.364,-1.3639,-1.3584,-1.3584,-1.3533,-1.3522,-1.3495,-1.3537,-1.3513,-1.3547,-1.354,-1.359,-1.3587,-1.3753,-1.3773,-1.3596,-1.3598,-1.3599,0,-1.384,-1.3859,-1.3812,-1.3812,-1.3795,-1.3797,-1.3792,-1.3733,-1.373,-1.3701,-1.3716,-1.371,-1.3703,-1.3706,-1.3665,-1.3657,-1.3634,-1.3693,-1.3633,-1.365,-1.3638,-1.3638,-1.3641,-1.3707,-1.3709,-1.3711,-1.3712,0,-1.3983,-1.3958,-1.3953,-1.394,-1.3936,-1.3923,-1.3906,-1.3911,-1.3845,-1.3846,-1.3845,-1.3839,-1.3828,-1.3824,-1.3809,-1.3788,-1.3741,-1.3732,-1.3742,-1.3761,-1.3781,-1.3773,-1.3584,-1.3728,-1.3727,-1.3726,-1.3725,-1.3724,-1.4096,-1.4111,-1.408,-1.4077,-1.4058,-1.4044,-1.4053,-1.4019,-1.4017,-1.4003,-1.3968,-1.3973,-1.3946,-1.392,-1.3904,-1.3908,-1.3878,-1.3893,-1.3897,-1.3902,-1.3913,-1.3778,-1.3904,-1.3904,-1.3903,-1.3903,-1.3902,0,-1.4238,-1.4215,-1.4213,-1.4192,-1.419,-1.4144,-1.4123,-1.4125,-1.413,-1.4109,-1.4103,-1.4102,-1.4098,-1.4058,-1.4049,-1.406,-1.4039,-1.4061,-1.406,-1.4057,-1.3939,-1.3931,-1.4079,-1.4078,-1.4078,-1.4078,-1.4078,-1.4078,-1.4312,-1.4335,-1.4307,-1.432,-1.4296,-1.4301,-1.4293,-1.4281,-1.4263,-1.4265,-1.4262,-1.4235,-1.4206,-1.4195,-1.419,-1.4179,-1.418,-1.421,-1.4191,-1.4082,-1.4065,-1.4049,-1.4042,-1.421,-1.421,-1.4309,-1.431,-1.4311]},{"header":{"parameterUnit":"m.s-1","parameterCategory":1,"la1":30.2991,"la2":30.254,"lo1":-89.0895,"lo2":-89.0444,"dy":0.0017,"dx":0.0017,"nx":28,"ny":28,"refTime":"2023-11-04T09:00:00:Z","depth":0,"parameterNumber":3,"parameterNumberName":"V-component_of_WINDS"},"data":[0,0,0,0,0,0,0,0,0,0,0,0,0,0,0,0,0,0,0,0,0,0,0,0,0,0,0,0,0,0,0,0,0,0,0,0,0,0,0,0,0,0,0,0,0,0,0,0,0,0,0,0,0,0,0,0,0,0,0.521,0.521,0,0.5178,0.5177,0.5177,0.5175,0.5175,0.5176,0.5176,0.5139,0.5137,0.5136,0,0,0,0,0,0,0,0,0,0,0,0,0,0.5266,0.5265,0.521,0.521,0.5209,0.5178,0.5177,0.5177,0.5175,0.5175,0.5176,0.5176,0.5139,0.5138,0.5136,0,0,0,0,0,0,0,0,0,0,0,0,0,0.5238,0.5265,0.521,0.5205,0.5204,0.5178,0.5177,0.5177,0.5175,0.5175,0.5176,0.5177,0.514,0.5138,0.5136,0.5112,0,0,0.513,0.5129,0,0,0,0,0,0,0,0,0.524,0.5236,0.5206,0.5205,0.5204,0.5181,0.5183,0.5155,0.5175,0.5186,0.5176,0.5177,0.5152,0.5149,0.5142,0.511,0.5108,0.5129,0.5128,0.5127,0.5127,0,0,0,0,0,0,0,0.5242,0.5238,0.5197,0.5205,0.5204,0.5202,0.5199,0.5178,0.5166,0.5185,0.5185,0.5181,0.5152,0.5144,0.5141,0.5108,0.5129,0.5128,0.5126,0.5126,0.5053,0.5052,0,0,0,0,0,0,0.5245,0.5239,0.5198,0.5196,0.5224,0.5201,0.5197,0.5188,0.5166,0.5164,0.5181,0.5181,0.5147,0.5143,0.5139,0.5108,0.5127,0.5125,0.5124,0.5054,0.5053,0.5052,0,0,0,0,0,0,0.5247,0.5242,0.5199,0.5218,0.5212,0.5199,0.5189,0.5187,0.5179,0.5163,0.516,0.5175,0.5147,0.5142,0.5118,0.5107,0.5124,0.5123,0.5055,0.5053,0.5052,0.5047,0,0,0,0,0,0,0.5248,0.5242,0.5234,0.5218,0.5211,0.518,0.5188,0.5186,0.5176,0.5176,0.5157,0.5154,0.5147,0.5122,0.5116,0.5105,0.5121,0.5055,0.5054,0.5053,0.5048,0.5046,0.5044,0,0,0,0,0,0.525,0.5233,0.5234,0.5229,0.5201,0.518,0.5176,0.5169,0.5175,0.5166,0.5155,0.5155,0.511,0.5119,0.5113,0.5101,0.5056,0.5054,0.5053,0.5049,0.5046,0.5044,0,0,0,0,0,0,0.5247,0.5231,0.5231,0.5208,0.5196,0.5179,0.5168,0.5167,0.5151,0.5152,0.5143,0.5139,0.5115,0.5106,0.5117,0.5076,0.5083,0.508,0.5082,0.508,0.5078,0.5079,0.5119,0,0,0,0,0,0.5244,0.523,0.5216,0.5197,0.5191,0.518,0.5171,0.5167,0.5153,0.5147,0.5135,0.512,0.5102,0.5091,0.5074,0.5047,0.5042,0.5036,0.5034,0.5032,0.5029,0.5013,0.5009,0.5047,0.5047,0.5047,0,0,0.5237,0.5226,0.5217,0.5196,0.5186,0.5169,0.5176,0.5158,0.5146,0.5144,0.5121,0.5112,0.5094,0.5069,0.5057,0.506,0.5018,0.503,0.5029,0.5027,0.5011,0.5007,0.5004,0.5046,0.5046,0.5046,0,0,0.5215,0.5207,0.5189,0.5179,0.5164,0.5157,0.5153,0.5137,0.5131,0.5108,0.5106,0.509,0.5061,0.5048,0.5038,0.5011,0.5009,0.5006,0.4994,0.4979,0.4975,0.4973,0.4961,0.4958,0.5003,0.5003,0.5003,0,0.5208,0.5185,0.518,0.5163,0.5153,0.5152,0.5133,0.5123,0.5103,0.5095,0.51,0.5062,0.505,0.5021,0.5014,0.5007,0.5,0.5007,0.4977,0.4974,0.4971,0.496,0.4956,0.5003,0.5003,0.5003,0.5003,0,0.5175,0.5159,0.5147,0.5128,0.5117,0.5099,0.509,0.5079,0.5077,0.5069,0.5045,0.5031,0.501,0.5004,0.5001,0.4973,0.4976,0.4979,0.4986,0.4967,0.4957,0.4953,0.5002,0.5003,0.5003,0.5003,0,0,0.5149,0.5129,0.5124,0.5115,0.5098,0.5085,0.5067,0.5048,0.5038,0.5024,0.5007,0.4982,0.4984,0.4972,0.4968,0.4954,0.4932,0.4958,0.4958,0.4952,0.4899,0.4895,0.4891,0.4932,0.4931,0.493,0.49,0,0.5124,0.5093,0.5088,0.506,0.5044,0.5043,0.5027,0.5014,0.5006,0.499,0.4982,0.4963,0.4969,0.4962,0.4948,0.4938,0.4921,0.494,0.4913,0.4912,0.4915,0.4885,0.4882,0.4853,0.4896,0.4895,0.4895,0,0.5091,0.5077,0.5047,0.5031,0.5024,0.501,0.4992,0.4978,0.4963,0.4958,0.4945,0.4942,0.4921,0.4931,0.4901,0.4914,0.4903,0.4896,0.4895,0.489,0.4901,0.4878,0.4845,0.4839,0.4888,0.4889,0.4889,0,0.5072,0.5046,0.5024,0.5017,0.4999,0.4989,0.498,0.4966,0.4955,0.4939,0.4931,0.4913,0.4902,0.4887,0.4878,0.4886,0.4848,0.4857,0.4841,0.4841,0.4831,0.4832,0.4794,0.4828,0.4828,0.4828,0.4828,0,0.5044,0.5025,0.5016,0.5002,0.4981,0.4975,0.4954,0.4946,0.4933,0.4916,0.4915,0.4899,0.489,0.4872,0.4866,0.4841,0.4836,0.483,0.4828,0.4829,0.483,0.482,0.4821,0.4827,0.4827,0.4828,0.4828,0,0.5018,0.5012,0.4988,0.4974,0.4969,0.4954,0.494,0.4926,0.492,0.4899,0.4893,0.4882,0.4861,0.4852,0.4826,0.4821,0.4792,0.4792,0.4797,0.4796,0.4779,0.478,0.4732,0.4724,0.4766,0.4766,0.4766,0,0.5,0.4985,0.4969,0.4959,0.495,0.4934,0.4922,0.4917,0.4905,0.4886,0.4874,0.4854,0.4837,0.4803,0.4791,0.4771,0.477,0.4754,0.4766,0.4767,0.4766,0.4766,0.4764,0.4751,0.4751,0.475,0.475,0,0.4966,0.4963,0.4948,0.4931,0.4918,0.4904,0.4891,0.4882,0.4874,0.486,0.484,0.4827,0.4801,0.4779,0.4759,0.4748,0.4747,0.4747,0.4742,0.4741,0.4743,0.4739,0.4788,0.4747,0.4748,0.4748,0.4748,0.4748,0.4942,0.4928,0.4915,0.4897,0.4887,0.4874,0.486,0.4851,0.4835,0.4814,0.4811,0.4789,0.4773,0.4745,0.4734,0.4715,0.4718,0.4711,0.4709,0.4707,0.4705,0.4749,0.4711,0.4712,0.4712,0.4712,0.4712,0,0.4906,0.4897,0.4881,0.4863,0.4849,0.4851,0.4836,0.4823,0.4804,0.479,0.4774,0.4749,0.4729,0.4716,0.4695,0.4682,0.468,0.4676,0.4676,0.4673,0.4704,0.471,0.4678,0.4678,0.4678,0.4678,0.4678,0.4678,0.4885,0.4862,0.4858,0.4829,0.4821,0.4799,0.479,0.4778,0.4767,0.474,0.4723,0.4716,0.4701,0.4679,0.466,0.4656,0.4647,0.4643,0.4639,0.4667,0.4671,0.4674,0.4679,0.4641,0.4641,0.4609,0.4608,0.4608]}]]